Simultaneous Nadir Overpasses (SNOs) Predictions

Prediction of SNOs between AQUA and METOP-B Satellite Orbit:

Table of predicted SNOs for the next 14.0 days since TLE Epoch: 3/2/2018
Index Date (AQUA) Time (AQUA) Lat,Lon (AQUA) SZA (AQUA ) Date (METOP-B) Time (METOP-B) Lat,Lon (METOP-B) SZA (METOP-B ) Distance(km) Time Diff (sec)
1 03/04/2018 13:34:04 73.78, -29.07 80.19 03/04/2018 13:32:51 73.69, -29.45 80.13 15.44 73
2 03/04/2018 14:23:32 -73.88, 138.34 99.72 03/04/2018 14:23:29 -73.86, 138.28 99.74 3.17 3
3 03/04/2018 15:13:00 73.93, -54.13 80.33 03/04/2018 15:14:07 73.97, -54.13 80.35 3.88 67
4 03/07/2018 09:08:20 73.81, 37.31 79.12 03/07/2018 09:07:09 73.82, 37.28 79.15 2.13 71
5 03/07/2018 09:57:48 -73.90,-155.26 100.79 03/07/2018 09:57:49 -73.89,-155.23 100.80 1.41 1
6 03/07/2018 10:47:16 73.96, 12.25 79.26 03/07/2018 10:48:28 73.95, 12.24 79.24 0.74 72
7 03/10/2018 04:42:37 73.84, 103.67 78.05 03/10/2018 04:41:30 73.85, 103.76 78.08 3.13 67
8 03/10/2018 05:32:04 -73.88, -88.77 101.93 03/10/2018 05:32:11 -73.88, -88.86 101.92 2.60 7
9 03/10/2018 06:21:35 74.09, 78.38 78.30 03/10/2018 06:22:47 74.08, 78.97 78.25 18.04 72
10 03/13/2018 00:16:53 73.83, 170.13 76.93 03/13/2018 00:15:52 73.83, 170.12 76.94 0.71 61
11 03/13/2018 01:06:21 -73.92, -22.42 103.00 03/13/2018 01:06:32 -73.91, -22.38 103.01 1.48 11
12 03/13/2018 01:55:55 74.29, 144.36 77.40 03/13/2018 01:57:04 74.31, 145.94 77.34 47.70 69
13 03/15/2018 19:51:08 73.83,-123.43 75.81 03/15/2018 19:50:12 73.86,-123.41 75.85 3.70 56
14 03/15/2018 20:40:36 -73.91, 44.03 104.12 03/15/2018 20:40:53 -73.89, 43.98 104.14 2.79 17




NCC Satellite Simultaneous Nadir Overpasses (SNOs) Prediction Service
